Wind_Speed
1 1 2 2 3 3 3 3 2 3 3 3 3 3 2 2 2 1 1 1 1 2 2 2 2 3 3 3 3 3 4 4 4 4 4 5 5 6 6 5 5 6 6
1 1 1 2 2 2 2 1 1 1 2 1 1 1 1 1 1 1 2 2 2 2 3 3 3 4 4 4 4 5 5 5 5 5 5 6 6 7 7 7 8 8 8
2 1 1 1 2 2 2 1 1 1 1 1 1 2 2 2 2 3 3 3 3 4 4 4 4 5 5 5 5 6 6 6 7 7 7 7 8 9 9 9 10 10 10
2 1 1 1 2 2 2 2 1 1 2 2 2 3 4 4 4 4 4 4 5 5 6 6 6 6 6 6 7 7 7 8 9 9 9 10 10 10 11 11 11 11 11
2 2 1 2 2 3 3 3 2 2 3 3 3 4 4 5 5 6 6 6 6 7 7 7 8 8 8 8 9 9 10 10 10 11 11 11 11 11 12 12 12 13 13
2 2 2 2 2 3 3 4 4 4 4 5 5 5 6 6 7 7 7 7 8 8 8 9 9 10 10 10 11 12 11 12 12 12 12 12 12 13 13 13 13 13 14
3 3 3 2 3 3 4 5 6 6 6 6 6 7 8 9 8 8 8 8 9 10 10 10 11 11 11 12 13 13 13 13 14 13 13 14 15 15 15 15 15 16 16
4 4 4 4 5 5 6 7 7 8 8 8 8 8 9 9 9 9 9 9 9 10 11 11 12 13 13 13 13 13 14 14 15 15 16 16 17 18 17 17 17 18 19
4 5 5 5 6 6 7 7 8 8 9 9 9 10 10 10 10 10 10 10 10 11 12 13 13 14 14 14 15 15 15 15 16 17 18 18 18 20 21 20 20 20 20
5 6 6 5 6 7 7 8 8 9 9 10 10 10 11 11 11 11 12 12 12 13 14 14 15 15 15 15 16 17 16 17 17 18 19 19 20 20 21 22 23 22 22
6 6 6 6 7 7 8 8 9 9 10 11 11 11 11 11 11 11 12 13 14 15 15 15 15 16 17 16 16 16 16 17 18 19 20 21 21 22 23 23 24 24 25
6 7 7 7 8 8 8 9 9 10 11 11 11 11 11 11 12 13 13 14 15 15 16 16 16 15 15 15 15 16 17 18 19 21 21 22 22 23 24 25 25 26 26
7 8 8 8 9 9 9 9 9 10 10 11 11 12 13 13 13 14 14 15 15 16 17 16 16 15 15 15 16 16 17 18 19 21 21 22 23 24 25 26 26 26 27
8 8 9 9 10 10 10 10 10 11 11 12 12 13 14 14 14 14 15 15 16 16 16 16 16 16 16 16 17 18 19 19 20 21 21 22 22 23 25 25 25 26 26
9 9 10 10 10 10 11 10 11 11 12 12 12 13 14 14 15 15 16 16 16 16 16 16 16 17 17 18 18 19 20 20 21 22 22 22 23 24 24 24 25 25 27
10 11 10 11 11 10 10 11 12 12 12 12 13 14 15 16 16 17 16 16 16 16 16 17 18 18 18 19 20 20 20 20 21 22 22 23 24 24 25 25 26 26 27
11 11 11 11 11 11 11 12 12 13 13 14 15 15 16 17 17 17 17 17 17 17 17 18 19 19 19 20 20 20 21 21 22 23 24 24 24 25 26 26 27 28 28
12 12 11 12 12 12 12 12 12 13 14 14 15 16 17 17 17 17 17 17 17 18 19 19 19 19 20 21 22 22 22 23 23 24 25 26 26 27 27 27 28 28 30
12 12 12 12 13 13 13 13 14 14 15 15 16 16 16 17 17 17 17 17 18 19 20 20 21 21 22 22 23 23 24 25 25 26 26 26 27 27 28 29 29 30 30
13 13 13 13 14 14 14 15 15 15 16 16 16 16 17 17 17 18 18 19 19 20 21 22 23 23 23 23 23 24 25 26 26 27 27 27 28 29 29 30 30 31 31
15 15 14 14 14 14 14 15 15 15 16 16 17 17 18 18 18 19 19 20 20 21 22 22 23 23 23 24 25 25 26 27 28 28 29 29 29 29 30 31 31 31 31
15 16 15 15 15 15 15 15 16 16 16 17 18 18 19 19 20 20 20 20 21 22 22 22 23 24 24 24 25 26 27 28 29 29 29 30 30 30 30 30 31 31 31
16 16 17 16 16 17 17 16 17 17 17 18 18 19 20 20 20 20 21 21 22 22 23 23 23 24 25 25 26 27 28 29 29 30 30 30 30 30 30 30 30 30 30
17 18 18 17 17 18 18 18 18 18 19 19 20 21 21 21 21 21 22 22 23 23 23 23 24 24 25 26 27 27 28 29 30 30 30 30 30 30 30 30 30 30 30
18 18 18 18 18 18 18 19 19 19 19 20 20 21 21 21 22 22 23 23 24 24 24 24 25 25 26 26 27 28 29 30 30 30 30 30 30 30 30 30 30 30 30
20 19 19 19 19 19 19 19 20 20 20 20 21 22 22 22 23 23 24 24 24 24 25 25 25 26 27 28 28 29 30 31 31 31 30 30 30 30 30 30 30 30 30
Wind_Direction
54 90 124 134 130 133 130 115 95 95 81 79 68 57 66 63 42 31 29 13 4 348 349 342 334 329 321 316 313 308 305 306 296 285 276 270 265 265 265 267 267 268 265
326 285 184 174 176 176 167 142 102 67 59 44 26 14 11 2 347 347 313 304 305 307 309 316 318 314 311 304 302 298 291 293 291 287 281 274 270 269 269 268 269 269 269
331 275 200 222 227 222 231 225 210 323 355 343 326 325 326 328 320 315 303 289 291 293 292 298 303 304 302 302 300 297 289 285 282 283 280 276 272 271 271 270 269 268 268
344 325 249 249 242 240 243 245 263 288 317 322 310 306 311 317 318 312 303 293 291 289 287 291 296 297 294 295 294 296 290 282 279 278 279 277 275 274 273 272 270 269 269
346 346 325 280 275 263 262 264 278 284 299 306 308 307 308 308 310 308 301 298 295 292 290 290 295 293 288 288 291 294 289 285 284 282 281 279 278 278 278 274 272 270 270
339 354 350 325 297 283 274 272 281 286 292 297 299 299 304 304 302 303 302 301 298 294 291 291 297 295 292 289 292 292 288 287 284 283 281 278 276 277 279 275 273 272 271
342 326 326 328 312 297 293 288 285 287 290 295 298 297 298 300 297 301 302 303 302 298 291 291 294 295 294 294 293 292 291 288 284 279 278 276 276 277 276 275 273 273 271
337 328 315 314 309 303 298 293 290 290 292 294 296 299 304 305 299 304 307 306 299 298 299 299 296 295 293 291 292 291 292 291 286 282 281 280 278 276 275 275 274 274 273
324 316 314 309 302 299 300 298 296 292 288 294 298 299 299 298 302 302 303 304 300 300 299 296 298 299 295 290 288 288 287 286 286 283 283 284 283 279 276 274 273 272 272
315 315 314 312 304 298 300 300 294 291 293 299 300 299 298 299 301 304 305 305 303 303 303 300 299 296 297 295 291 288 285 285 286 285 282 282 285 284 281 278 275 275 273
313 314 313 314 307 298 295 297 295 292 294 297 299 300 299 300 302 302 303 304 305 306 305 301 299 297 295 299 299 297 292 289 288 287 287 286 284 284 283 280 277 275 273
313 311 310 307 304 301 297 295 298 295 295 294 298 300 301 303 304 302 304 303 302 302 303 302 300 301 298 299 301 300 297 293 292 293 292 289 285 284 284 281 276 275 274
313 313 310 304 303 302 298 294 298 300 299 301 303 305 305 303 304 305 305 304 303 302 303 305 302 300 301 301 301 300 299 297 296 297 296 293 289 287 286 282 277 277 277
316 318 315 308 305 305 306 302 298 298 301 303 305 306 306 305 305 306 306 306 306 305 304 304 302 302 303 303 302 301 300 300 300 299 298 296 294 292 290 286 284 281 280
321 320 314 311 311 309 309 307 305 302 300 303 305 306 307 306 306 306 306 305 305 305 303 302 304 303 303 303 304 304 303 302 302 302 299 297 296 294 292 291 288 284 281
321 319 314 309 308 309 309 310 310 311 310 309 308 308 308 307 307 307 307 305 304 305 306 306 306 304 305 305 303 304 304 304 303 303 302 300 298 295 294 291 290 288 286
322 319 314 313 310 309 311 310 311 313 312 309 309 308 308 307 307 307 307 304 303 305 307 307 306 304 306 307 305 305 306 304 305 303 302 301 300 299 296 294 292 291 290
326 322 319 316 316 314 312 313 313 313 313 313 313 312 309 307 308 307 305 305 305 306 307 307 306 306 306 307 306 306 305 305 305 304 303 302 301 300 298 295 293 292 290
326 322 318 315 316 316 315 315 315 314 314 314 316 316 314 311 309 308 306 305 305 305 306 306 306 305 305 306 306 306 307 305 305 305 304 303 301 300 299 297 295 293 292
321 319 316 315 315 314 312 312 312 314 314 313 314 315 315 313 311 309 307 305 304 304 304 304 304 304 304 306 306 306 307 307 306 306 304 303 302 300 300 298 296 295 295
328 324 320 317 316 317 316 316 315 316 316 315 314 314 314 312 310 308 306 305 304 304 303 303 304 304 305 304 305 307 308 307 307 308 306 304 303 302 302 300 298 297 296
330 329 327 324 322 322 321 318 317 316 315 315 314 314 314 313 312 309 308 307 307 306 304 304 305 305 305 305 306 307 308 308 308 309 307 305 304 303 302 301 300 300 298
328 327 325 324 322 320 318 317 316 316 315 315 315 314 314 312 313 313 311 311 311 309 307 305 306 306 305 306 307 307 308 308 308 308 307 307 307 306 304 303 302 301 301
325 324 321 320 318 317 317 317 316 316 315 315 314 314 313 312 313 312 312 312 312 311 309 306 306 306 306 307 307 308 309 309 309 309 309 308 307 307 305 304 303 304 303
323 323 320 318 318 318 318 318 318 316 316 315 315 315 314 314 314 314 313 312 311 311 309 308 306 306 307 308 309 310 310 310 310 310 309 308 307 306 306 305 304 304 303
320 320 318 317 317 317 317 317 317 316 316 316 315 315 315 314 314 315 314 313 311 310 310 309 308 308 309 310 310 310 310 310 310 309 309 308 307 307 307 306 306 305 304
Height
5900 5900 5901 5901 5901 5902 5902 5902 5903 5903 5903 5903 5903 5902 5903 5903 5903 5903 5903 5903 5903 5903 5903 5903 5903 5902 5902 5902 5901 5901 5901 5901 5901 5901 5901 5900 5900 5901 5901 5901 5901 5901 5901
5900 5901 5901 5902 5902 5902 5903 5903 5904 5904 5903 5904 5904 5904 5903 5903 5903 5903 5903 5903 5903 5903 5903 5903 5903 5902 5902 5901 5901 5900 5900 5900 5900 5900 5900 5900 5899 5899 5899 5899 5899 5899 5899
5900 5901 5901 5902 5902 5903 5903 5904 5904 5904 5904 5904 5904 5904 5904 5903 5903 5903 5903 5902 5902 5902 5902 5902 5902 5901 5901 5900 5900 5900 5899 5899 5899 5899 5898 5898 5898 5898 5898 5897 5897 5897 5897
5901 5901 5901 5902 5902 5903 5903 5904 5904 5904 5904 5904 5904 5904 5904 5903 5903 5902 5902 5902 5902 5901 5901 5901 5901 5900 5900 5899 5899 5898 5898 5898 5897 5897 5897 5896 5896 5896 5896 5895 5895 5895 5895
5901 5901 5901 5902 5902 5902 5903 5903 5904 5904 5904 5903 5903 5903 5903 5903 5902 5902 5901 5901 5900 5900 5900 5900 5899 5898 5898 5897 5897 5897 5896 5896 5895 5895 5894 5894 5894 5893 5893 5893 5892 5892 5892
5901 5901 5902 5902 5902 5902 5903 5903 5903 5903 5903 5903 5902 5902 5902 5901 5901 5901 5900 5899 5899 5898 5898 5898 5897 5896 5895 5895 5895 5894 5894 5893 5893 5892 5892 5891 5891 5891 5890 5890 5889 5889 5889
5901 5901 5902 5902 5902 5902 5902 5902 5902 5902 5902 5901 5901 5901 5900 5900 5899 5899 5898 5898 5897 5897 5896 5896 5895 5894 5893 5893 5892 5891 5891 5890 5890 5889 5889 5888 5888 5887 5887 5886 5886 5885 5885
5901 5901 5901 5901 5901 5901 5901 5901 5901 5901 5900 5900 5900 5899 5899 5899 5897 5897 5896 5895 5895 5894 5893 5893 5892 5891 5891 5890 5888 5888 5887 5887 5886 5886 5885 5884 5884 5883 5883 5882 5882 5881 5881
5901 5901 5901 5901 5900 5900 5900 5899 5899 5899 5898 5898 5898 5898 5897 5896 5895 5895 5894 5893 5893 5891 5890 5889 5889 5888 5887 5886 5885 5883 5884 5883 5882 5882 5881 5880 5880 5879 5878 5878 5877 5877 5876
5901 5901 5900 5900 5899 5899 5898 5898 5897 5897 5896 5896 5896 5895 5895 5894 5893 5892 5891 5890 5890 5889 5887 5886 5885 5884 5883 5882 5880 5880 5879 5879 5878 5877 5877 5876 5875 5874 5873 5872 5872 5871 5870
5900 5900 5899 5899 5898 5898 5897 5896 5896 5895 5895 5894 5893 5893 5892 5891 5890 5890 5889 5888 5886 5885 5884 5883 5882 5880 5879 5878 5877 5876 5875 5874 5873 5872 5871 5870 5869 5868 5867 5866 5866 5865 5864
5899 5898 5898 5897 5897 5896 5896 5895 5894 5893 5892 5892 5891 5890 5889 5888 5888 5887 5886 5885 5883 5882 5881 5879 5878 5877 5876 5874 5873 5872 5871 5870 5868 5867 5865 5864 5863 5862 5861 5860 5859 5858 5857
5898 5897 5896 5896 5895 5894 5893 5893 5892 5891 5890 5889 5889 5888 5887 5886 5885 5884 5883 5882 5880 5879 5877 5876 5874 5873 5872 5871 5870 5868 5867 5865 5864 5862 5860 5859 5857 5856 5854 5853 5852 5851 5850
5896 5896 5895 5894 5893 5892 5891 5890 5889 5889 5888 5887 5886 5885 5884 5883 5882 5881 5880 5878 5877 5875 5874 5872 5871 5869 5868 5867 5865 5864 5862 5861 5859 5857 5855 5853 5851 5850 5848 5846 5845 5844 5843
5895 5894 5893 5892 5891 5890 5890 5889 5887 5887 5886 5884 5883 5882 5881 5880 5878 5877 5876 5875 5874 5872 5870 5868 5867 5866 5864 5863 5861 5859 5857 5855 5853 5852 5850 5848 5846 5844 5842 5840 5839 5837 5836
5893 5892 5891 5890 5889 5888 5887 5886 5885 5884 5883 5882 5881 5879 5878 5876 5875 5873 5872 5871 5870 5868 5867 5865 5863 5861 5860 5858 5856 5854 5852 5850 5848 5846 5844 5842 5840 5838 5835 5834 5832 5830 5828
5891 5890 5889 5888 5887 5886 5885 5884 5883 5882 5880 5879 5878 5876 5875 5873 5871 5870 5868 5867 5866 5864 5863 5861 5859 5857 5855 5853 5851 5849 5847 5845 5843 5840 5838 5836 5833 5831 5829 5827 5824 5822 5820
5890 5889 5887 5886 5885 5884 5883 5881 5880 5879 5878 5876 5875 5873 5871 5869 5868 5866 5864 5863 5861 5860 5858 5856 5854 5852 5850 5848 5846 5844 5842 5839 5837 5834 5832 5829 5826 5824 5821 5819 5817 5814 5812
5888 5887 5885 5884 5883 5881 5880 5879 5878 5876 5875 5873 5872 5870 5868 5866 5864 5862 5861 5859 5857 5856 5854 5852 5849 5847 5845 5843 5840 5838 5836 5833 5830 5828 5825 5822 5820 5817 5814 5812 5809 5806 5804
5886 5884 5883 5882 5880 5879 5877 5876 5875 5874 5872 5870 5868 5867 5865 5863 5861 5859 5857 5855 5853 5851 5849 5847 5844 5842 5840 5837 5835 5833 5830 5827 5824 5821 5818 5816 5813 5810 5807 5804 5801 5798 5795
5884 5882 5881 5879 5878 5876 5875 5873 5872 5870 5869 5867 5865 5863 5861 5859 5856 5854 5852 5850 5848 5846 5844 5842 5839 5837 5835 5832 5829 5827 5824 5821 5818 5815 5811 5808 5805 5802 5799 5795 5792 5789 5786
5882 5881 5879 5877 5875 5874 5872 5870 5869 5867 5865 5864 5862 5860 5858 5855 5853 5850 5848 5845 5843 5841 5839 5837 5834 5832 5829 5827 5823 5820 5817 5814 5811 5808 5804 5801 5798 5794 5790 5787 5784 5780 5777
5880 5878 5877 5875 5873 5871 5869 5868 5866 5864 5862 5860 5858 5856 5854 5851 5848 5846 5843 5841 5838 5836 5834 5832 5829 5826 5824 5820 5817 5814 5811 5807 5804 5800 5797 5793 5790 5786 5783 5779 5776 5772 5769
5878 5876 5874 5872 5870 5868 5866 5864 5862 5860 5858 5856 5854 5852 5849 5847 5844 5841 5839 5836 5833 5831 5828 5826 5823 5821 5818 5814 5811 5808 5804 5801 5797 5793 5790 5786 5782 5779 5775 5772 5768 5765 5761
5875 5873 5871 5869 5867 5865 5863 5861 5859 5857 5854 5852 5850 5847 5845 5842 5840 5837 5834 5832 5829 5826 5823 5820 5818 5815 5811 5808 5805 5802 5798 5794 5790 5786 5783 5779 5775 5772 5768 5765 5761 5757 5754
5871 5869 5867 5865 5863 5861 5859 5857 5855 5853 5851 5848 5846 5843 5840 5838 5835 5832 5829 5826 5823 5821 5818 5815 5812 5809 5806 5802 5798 5795 5791 5787 5783 5780 5775 5772 5768 5764 5761 5757 5753 5749 5746